www.pogodaiklimat.ru

Погода и климат >> Архив погоды >> Россия >> Приморский край >> Владивосток


АРХИВ ПОГОДЫ в Владивостоке

Время (UTC), дата Ветер
(напр.,м/с)
 
Видим.   Явления Облачность Т
(С)
Тd
(С)
f
(%)
Тe
(С)
Тes
(С)
Комфортность P
(гПа)
Po
(гПа)
Тmin
(С)
Tmax
(С)
R
(мм)
R24
(мм)
S
(см)
21 14.11 С 5 50 км ясно -2.6 -4.7 85 -9 -9 по сезону 1024.9 1000.9 -2.6
00 15.11 Ю 1 50 км 6/0
[Ci fib]
0.0 -2.8 81 -2 -1 тепло 1024.9 1001.1 -2.8
03 15.11 Ю 3 50 км 10/0
[Cs]
+3.9 -1.3 69 0 +3 тепло 1023.3 999.9
06 15.11 ЮВ 5 50 км 10/0
[Cs]
+4.9 +1.6 79 0 +1 по сезону 1021.9 998.6
09 15.11 ЮВ 5 20 км 9/0
[]
+4.7 +3.7 93 -0 -0 тепло 1022.1 998.8 +5.5
12 15.11 ЮВ 5 20 км 10/0
[As op]
+5.2 +4.5 95 0 0 тепло 1021.2 998.0
15 15.11 ЮВ 5 20 км 10/0
[As op]
+5.6 +5.1 97 +1 +1 тепло 1019.6 996.4
18 15.11 С 7-12
{12}
20 км в посл. час туман 10/0
[As op]
+3.8 +3.6 99 -2 -2 тепло 1019.5 996.2
21 15.11 С 7-13
{15}
10 км слабый дождь 10/0
[As op]
+1.1 0.0 92 -6 -6 по сезону 1021.6 998.0 +1.1 1
00 16.11 С 10-18
{19}
50 км {дождь} 10/10 600 м
[Sc]
-2.2 -8.9 60 -11 -11 по сезону 1024.3 1000.3 -2.2
03 16.11 С 9-14
{19}
50 км 8/8 600 м
[Sc]
-2.1 -14.0 40 -10 -10 прохладно 1023.2 999.3
06 16.11 С 9-15
{17}
50 км ясно -0.1 -13.7 35 -7 -7 по сезону 1021.4 997.6
09 16.11 С 9-15
{16}
50 км ясно -2.0 -16.6 32 -9 -9 прохладно 1022.1 998.2 +1.1 0.0
12 16.11 С 6
{15}
50 км ясно -3.6 -16.5 36 -10 -10 прохладно 1023.6 999.5
15 16.11 С 5 50 км ясно -4.2 -14.1 46 -11 -11 прохладно 1024.1 999.9
18 16.11 С 4
{10}
50 км ясно -5.1 -12.2 57 -11 -11 по сезону 1024.4 1000.2
21 16.11 С 3 50 км ясно -5.8 -12.9 57 -11 -11 по сезону 1024.4 1000.1 -5.9
00 17.11 СЗ 4 50 км ясно -3.6 -12.8 49 -9 -8 по сезону 1024.6 1000.5 -5.9
03 17.11 Ю 3 50 км ясно +0.2 -15.2 30 -3 0 по сезону 1023.0 999.2
06 17.11 ЮВ 3 50 км 8/0
[Ci]
+2.0 -13.7 30 -1 0 по сезону 1021.1 997.6
09 17.11 Ю 3 50 км 9/0
[Ac lent Cc]
+0.9 -9.6 45 -3 -3 по сезону 1022.2 998.5 +2.9
12 17.11 С 1 50 км 8/8 600 м
[Sc]
+0.7 -10.5 43 -0 -0 тепло 1022.4 998.7
15 17.11 С 1 50 км 3/3 600 м
[Sc]
+0.4 -11.6 40 -1 -1 тепло 1021.8 998.1
18 17.11 С 2 50 км 1/1 600 м
[Sc]
+0.3 -12.4 38 -2 -2 тепло 1021.9 998.2
21 17.11 С 4 50 км ясно -1.0 -14.4 35 -6 -6 по сезону 1021.2 997.4 -1.8
00 18.11 С 2 50 км 4/4 600 м
[Sc]
-1.1 -12.7 41 -4 -3 тепло 1021.7 997.9 -2.3
03 18.11 С 3 50 км 3/0
[Ac lent Cc]
+1.6 -12.7 34 -2 +2 тепло 1020.2 996.6
06 18.11 С 2 50 км ясно +3.1 -13.7 28 +1 +3 тепло 1018.3 994.9
09 18.11 С 2 50 км ясно +1.1 -10.8 41 -1 -1 тепло 1019.2 995.6 +3.2
12 18.11 С 2 50 км ясно +0.3 -9.8 47 -3 -3 по сезону 1019.2 995.6
15 18.11 С 2 50 км ясно -1.5 -10.3 51 -5 -5 по сезону 1019.2 995.4
18 18.11 С 2 50 км ясно -2.3 -8.6 62 -6 -6 по сезону 1018.9 995.0
21 18.11 С 4 50 км ясно -3.9 -6.6 81 -10 -10 по сезону 1018.8 994.9 -3.9
00 19.11 С 7 50 км ясно -3.7 -7.1 77 -12 -11 по сезону 1020.4 996.4 -4.5
03 19.11 С 9-14
{14}
50 км ясно -0.4 -8.5 54 -8 -7 по сезону 1020.4 996.7
06 19.11 С 5
{14}
50 км ясно +1.0 -8.5 49 -4 -3 по сезону 1020.2 996.6
09 19.11 С 5
{13}
20 км ясно -0.9 -9.4 52 -7 -7 по сезону 1022.1 998.3 +1.0
12 19.11 С 4 20 км ясно -2.1 -8.7 61 -8 -8 по сезону 1023.7 999.8
15 19.11 С 2 20 км 10/0
[As op]
-2.6 -8.8 62 -6 -6 по сезону 1023.6 999.6
18 19.11 С 4 20 км 4/0
[Ac lent]
-3.5 -7.2 76 -9 -9 по сезону 1023.8 999.7
21 19.11 С 3 20 км ясно -3.8 -7.4 76 -9 -9 по сезону 1023.3 999.3 -3.8
00 20.11 ЮВ 2 20 км 10/0
[Ci]
-1.8 -5.5 76 -6 -5 по сезону 1022.7 998.8 -4.1
03 20.11 Ю 3 20 км 10/0
[Cs]
+1.0 -5.4 62 -3 -0 тепло 1021.5 997.8
06 20.11 штиль 0 2000 м слабый снег 10/0
[As op]
-1.1 -2.0 94 -2 -2 по сезону 1020.0 996.3
09 20.11 С 3 500 м слабый снег 10/0 600 м
[As op]
-1.4 -1.8 97 -7 -7 по сезону 1020.0 996.2 +1.0 3
12 20.11 С 5 10 км {снег} 10/10 600 м
[Sc]
-2.3 -2.8 96 -9 -9 по сезону 1020.9 997.0
15 20.11 С 3 10 км 8/8 600 м
[Sc]
-3.1 -4.1 93 -8 -8 по сезону 1022.4 998.4
18 20.11 С 10-15
{16}
10 км 3/3 600 м
[Sc]
-4.7 -8.6 74 -14 -14 прохладно 1024.0 999.8
21 20.11 С 7-13
{18}
10 км 3/3 600 м
[Sc]
-7.8 -13.0 66 -16 -16 прохладно 1025.6 1001.1 -7.8 0.0 3
00 21.11 С 6
{15}
50 км ясно -8.2 -14.9 58 -16 -16 прохладно 1027.1 1002.5 -8.5
03 21.11 С 6-10
{12}
50 км ясно -6.8 -15.5 50 -14 -13 прохладно 1025.2 1000.8
06 21.11 С 5
{12}
50 км ясно -5.0 -17.1 38 -11 -11 прохладно 1022.7 998.5
09 21.11 С 4 50 км ясно -6.4 -17.6 41 -12 -12 прохладно 1023.0 998.7 -4.8
12 21.11 С 3 50 км ясно -7.2 -16.2 49 -12 -12 прохладно 1023.2 998.8
15 21.11 С 4 50 км ясно -7.7 -13.3 64 -14 -14 прохладно 1022.1 997.7
18 21.11 С 3 50 км ясно -7.1 -11.9 69 -13 -13 по сезону 1021.6 997.2

 

Местоположение метеостанции Владивосток (Приморский край, Россия): широта 43.12 долгота 131.90 высота над уровнем моря 188 м.

В архиве по умолчанию представлена погода в Владивостоке за последнюю неделю. Архивные данные за месяц целиком и за предыдущие месяцы, начиная с января 2011 года, Вы можете получить, выбрав интересующий диапазон дат из раскрывающегося списка и нажав кнопку "Ввод!".


*Определитесь, кто Вы:
робот инопланетянин человек

Внимание! Время в таблицах - всемирное. Для получения местного времени необходимо прибавить поправку, которая в Владивостоке равна 10 ч.

Смотрите также архив погоды в соседних городах и на ближайших метеорологических станциях:

Погода на Мысе Назимова (Приморский край, Россия) (8 км)
Погода в Барабаше (Приморский край, Россия) (42 км)
Погода в Многоудобном (Приморский край, Россия) (60 км)
Погода в Находке (Приморский край, Россия) (81 км)
Погода в Гамове (Приморский край, Россия) (84 км)
Погода в Тимирязевском (Приморский край, Россия) (85 км)
Погода в Партизанске (Приморский край, Россия) (89 км)
Погода в Посьете (Приморский край, Россия) (104 км)
Погода в Полтавке (Приморский край, Россия) (112 км)
Погода в Анучино (Приморский край, Россия) (130 км)

Пояснения к столбцам:

Ветер - указаны скорость ветра в м/с - средняя за 10 мин, порывы в срок и между сроками (в фигурных скобках) и направление, откуда дует ветер: С - северный, СВ - северо-восточный, В - восточный, ЮВ - юго-восточный, Ю - южный, ЮЗ - юго-западный, З - западный, СЗ - северо-западный.
Видимость - горизонтальная дальность видимости в метрах или километрах. При видимости от 1 до 10 км при отсутствии осадков обычно наблюдается дымка, при ухудшении видимости до 1 км и менее - туман. В сухую погоду видимость может ухудшаться дымом, пылью или мглою.
Явления - указаны атмосферные явления, наблюдавшиеся в срок или в последний час перед сроком; фигурными скобками обозначены явления, наблюдавшиеся между сроками (за 1-3 часа до срока); квадратными скобками обозначены град или гололедные отложения с указанием их диаметра в мм.
Облачность - указаны через наклонную черту общая и нижняя облачность в баллах и высота нижней границы облаков в метрах; квадратными скобками обозначены формы облаков: Ci - перистые, Cs - перисто-слоистые, Cc - перисто-кучевые, Ac - высококучевые, As - высокослоистые, Sc - слоисто-кучевые, Ns - слоисто-дождевые, Cu - кучевые, Cb - кучево-дождевые. Подробнее классификацию облаков см. в Атласе облаков (PDF).
T - Температура воздуха - температура, измеренная на высоте 2 м над землей.
Td - Температура точки росы - температура, при понижении до которой содержащийся в воздухе водяной пар достигнет насыщения.
f - Относительная влажность воздуха - влажноcть воздуха, измеренная на высоте 2 м над землей.
Te - Эффективная температура - температура, которую ощущает одетый по сезону человек в тени. Характеристика душности погоды. При расчете учитывается влияние влажности воздуха и скорости ветра на теплоощущения человека.
Tes - Эффективная температура на солнце - температура, которую ощущает человек, с поправкой на солнечный нагрев. Характеристика знойности погоды. Зависит от высоты солнца над горизонтом, облачности и скорости ветра. Ночью, в пасмурную погоду, а также при ветре 12 м/с и более поправка равна нулю.
P - Атмосферное давление - приведенное к уровню моря атмосферное давление.
Po - Атмосферное давление - измеренное на уровне метеостанции атмосферное давление.
Tmin - Минимальная температура - минимум температуры воздуха на высоте 2 м над землей.
Tmax - Максимальная температура - максимум температуры воздуха на высоте 2 м над землей.
R - Количество осадков - Количество выпавших осадков за период времени, мм. При наведении курсора мыши на число - период времени, за который выпало указанное количество осадков.
R24 - Количество осадков - Количество выпавших осадков за 24 часа, мм.
S - Снежный покров - Высота снежного покрова, см. При наведении курсора мыши на число - состояние снежного покрова и степень покрытия местности в баллах.